Year,Month,Day,Hour,Minute,Value (Times are PST for temperature in C)
2013,10,27,00,00,7.30
2013,10,27,00,01,7.30
2013,10,27,00,02,7.30
2013,10,27,00,03,7.30
2013,10,27,00,04,7.20
2013,10,27,00,05,7.20
2013,10,27,00,06,7.20
2013,10,27,00,07,7.20
2013,10,27,00,08,7.20
2013,10,27,00,09,7.10
2013,10,27,00,10,7.10
2013,10,27,00,11,7.00
2013,10,27,00,12,7.00
2013,10,27,00,13,6.90
2013,10,27,00,14,6.90
2013,10,27,00,15,6.80
2013,10,27,00,16,6.80
2013,10,27,00,17,6.80
2013,10,27,00,18,6.70
2013,10,27,00,19,6.70
2013,10,27,00,20,6.70
2013,10,27,00,21,6.70
2013,10,27,00,22,6.60
2013,10,27,00,23,6.60
2013,10,27,00,24,6.60
2013,10,27,00,25,6.60
2013,10,27,00,26,6.60
2013,10,27,00,27,6.60
2013,10,27,00,28,6.60
2013,10,27,00,29,6.50
2013,10,27,00,30,6.50
2013,10,27,00,31,6.50
2013,10,27,00,32,6.40
2013,10,27,00,33,6.40
2013,10,27,00,34,6.40
2013,10,27,00,35,6.40
2013,10,27,00,36,6.40
2013,10,27,00,37,6.40
2013,10,27,00,38,6.30
2013,10,27,00,39,6.30
2013,10,27,00,40,6.30
2013,10,27,00,41,6.30
2013,10,27,00,42,6.30
2013,10,27,00,43,6.40
2013,10,27,00,44,6.40
2013,10,27,00,45,6.40
2013,10,27,00,46,6.40
2013,10,27,00,47,6.40
2013,10,27,00,48,6.50
2013,10,27,00,49,6.50
2013,10,27,00,50,6.60
2013,10,27,00,51,6.60
2013,10,27,00,52,6.60
2013,10,27,00,53,6.70
2013,10,27,00,54,6.70
2013,10,27,00,55,6.70
2013,10,27,00,56,6.80
2013,10,27,00,57,6.80
2013,10,27,00,58,6.80
2013,10,27,00,59,6.90
2013,10,27,01,00,6.90
2013,10,27,01,01,7.00
2013,10,27,01,02,7.00
2013,10,27,01,03,7.00
2013,10,27,01,04,7.00
2013,10,27,01,05,7.10
2013,10,27,01,06,7.10
2013,10,27,01,07,7.10
2013,10,27,01,08,7.00
2013,10,27,01,09,7.00
2013,10,27,01,10,7.00
2013,10,27,01,11,7.00
2013,10,27,01,12,7.00
2013,10,27,01,13,7.10
2013,10,27,01,14,7.10
2013,10,27,01,15,7.10
2013,10,27,01,16,7.20
2013,10,27,01,17,7.20
2013,10,27,01,18,7.20
2013,10,27,01,19,7.20
2013,10,27,01,20,7.20
2013,10,27,01,21,7.20
2013,10,27,01,22,7.30
2013,10,27,01,23,7.30
2013,10,27,01,24,7.40
2013,10,27,01,25,7.40
2013,10,27,01,26,7.50
2013,10,27,01,27,7.50
2013,10,27,01,28,7.60
2013,10,27,01,29,7.60
2013,10,27,01,30,7.60
2013,10,27,01,31,7.70
2013,10,27,01,32,7.70
2013,10,27,01,33,7.80
2013,10,27,01,34,7.80
2013,10,27,01,35,7.80
2013,10,27,01,36,7.90
2013,10,27,01,37,7.90
2013,10,27,01,38,7.90
2013,10,27,01,39,7.90
2013,10,27,01,40,8.00
2013,10,27,01,41,8.00
2013,10,27,01,42,8.00
2013,10,27,01,43,8.10
2013,10,27,01,44,8.10
2013,10,27,01,45,8.10
2013,10,27,01,46,8.10
2013,10,27,01,47,8.10
2013,10,27,01,48,8.10
2013,10,27,01,49,8.20
2013,10,27,01,50,8.20
2013,10,27,01,51,8.20
2013,10,27,01,52,8.20
2013,10,27,01,53,8.20
2013,10,27,01,54,8.20
2013,10,27,01,55,8.20
2013,10,27,01,56,8.20
2013,10,27,01,57,8.30
2013,10,27,01,58,8.30
2013,10,27,01,59,8.30
2013,10,27,02,00,8.30
2013,10,27,02,01,8.30
2013,10,27,02,02,8.30
2013,10,27,02,03,8.30
2013,10,27,02,04,8.30
2013,10,27,02,05,8.30
2013,10,27,02,06,8.40
2013,10,27,02,07,8.40
2013,10,27,02,08,8.40
2013,10,27,02,09,8.40
2013,10,27,02,10,8.40
2013,10,27,02,11,8.40
2013,10,27,02,12,8.40
2013,10,27,02,13,8.40
2013,10,27,02,14,8.40
2013,10,27,02,15,8.40
2013,10,27,02,16,8.40
2013,10,27,02,17,8.50
2013,10,27,02,18,8.50
2013,10,27,02,19,8.50
2013,10,27,02,20,8.50
2013,10,27,02,21,8.50
2013,10,27,02,22,8.50
2013,10,27,02,23,8.50
2013,10,27,02,24,8.50
2013,10,27,02,25,8.50
2013,10,27,02,26,8.50
2013,10,27,02,27,8.60
2013,10,27,02,28,8.60
2013,10,27,02,29,8.60
2013,10,27,02,30,8.60
2013,10,27,02,31,8.60
2013,10,27,02,32,8.60
2013,10,27,02,33,8.60
2013,10,27,02,34,8.60
2013,10,27,02,35,8.70
2013,10,27,02,36,8.70
2013,10,27,02,37,8.70
2013,10,27,02,38,8.70
2013,10,27,02,39,8.70
2013,10,27,02,40,8.70
2013,10,27,02,41,8.70
2013,10,27,02,42,8.70
2013,10,27,02,43,8.70
2013,10,27,02,44,8.70
2013,10,27,02,45,8.70
2013,10,27,02,46,8.70
2013,10,27,02,47,8.70
2013,10,27,02,48,8.70
2013,10,27,02,49,8.70
2013,10,27,02,50,8.70
2013,10,27,02,51,8.60
2013,10,27,02,52,8.60
2013,10,27,02,53,8.60
2013,10,27,02,54,8.60
2013,10,27,02,55,8.60
2013,10,27,02,56,8.70
2013,10,27,02,57,8.70
2013,10,27,02,58,8.70
2013,10,27,02,59,8.70
2013,10,27,03,00,8.70
2013,10,27,03,01,8.80
2013,10,27,03,02,8.80
2013,10,27,03,03,8.80
2013,10,27,03,04,8.80
2013,10,27,03,05,8.80
2013,10,27,03,06,8.80
2013,10,27,03,07,8.80
2013,10,27,03,08,8.80
2013,10,27,03,09,8.80
2013,10,27,03,10,8.80
2013,10,27,03,11,8.80
2013,10,27,03,12,8.80
2013,10,27,03,13,8.80
2013,10,27,03,14,8.80
2013,10,27,03,15,8.80
2013,10,27,03,16,8.80
2013,10,27,03,17,8.80
2013,10,27,03,18,8.80
2013,10,27,03,19,8.70
2013,10,27,03,20,8.70
2013,10,27,03,21,8.70
2013,10,27,03,22,8.70
2013,10,27,03,23,8.70
2013,10,27,03,24,8.70
2013,10,27,03,25,8.60
2013,10,27,03,26,8.60
2013,10,27,03,27,8.60
2013,10,27,03,28,8.60
2013,10,27,03,29,8.60
2013,10,27,03,30,8.50
2013,10,27,03,31,8.50
2013,10,27,03,32,8.50
2013,10,27,03,33,8.40
2013,10,27,03,34,8.40
2013,10,27,03,35,8.40
2013,10,27,03,36,8.40
2013,10,27,03,37,8.30
2013,10,27,03,38,8.30
2013,10,27,03,39,8.30
2013,10,27,03,40,8.30
2013,10,27,03,41,8.30
2013,10,27,03,42,8.40
2013,10,27,03,43,8.40
2013,10,27,03,44,8.40
2013,10,27,03,45,8.40
2013,10,27,03,46,8.40
2013,10,27,03,47,8.50
2013,10,27,03,48,8.50
2013,10,27,03,49,8.50
2013,10,27,03,50,8.50
2013,10,27,03,51,8.50
2013,10,27,03,52,8.60
2013,10,27,03,53,8.50
2013,10,27,03,54,8.60
2013,10,27,03,55,8.60
2013,10,27,03,56,8.60
2013,10,27,03,57,8.60
2013,10,27,03,58,8.60
2013,10,27,03,59,8.60
2013,10,27,04,00,8.60
2013,10,27,04,01,8.60
2013,10,27,04,02,8.60
2013,10,27,04,03,8.70
2013,10,27,04,04,8.70
2013,10,27,04,05,8.70
2013,10,27,04,06,8.70
2013,10,27,04,07,8.70
2013,10,27,04,08,8.70
2013,10,27,04,09,8.70
2013,10,27,04,10,8.80
2013,10,27,04,11,8.80
2013,10,27,04,12,8.80
2013,10,27,04,13,8.80
2013,10,27,04,14,8.90
2013,10,27,04,15,8.90
2013,10,27,04,16,8.90
2013,10,27,04,17,8.90
2013,10,27,04,18,8.90
2013,10,27,04,19,8.90
2013,10,27,04,20,8.90
2013,10,27,04,21,8.90
2013,10,27,04,22,8.90
2013,10,27,04,23,9.00
2013,10,27,04,24,9.00
2013,10,27,04,25,9.00
2013,10,27,04,26,9.00
2013,10,27,04,27,9.00
2013,10,27,04,28,9.00
2013,10,27,04,29,9.10
2013,10,27,04,30,9.10
2013,10,27,04,31,9.10
2013,10,27,04,32,9.10
2013,10,27,04,33,9.10
2013,10,27,04,34,9.20
2013,10,27,04,35,9.20
2013,10,27,04,36,9.20
2013,10,27,04,37,9.20
2013,10,27,04,38,9.30
2013,10,27,04,39,9.30
2013,10,27,04,40,9.30
2013,10,27,04,41,9.30
2013,10,27,04,42,9.40
2013,10,27,04,43,9.40
2013,10,27,04,44,9.40
2013,10,27,04,45,9.40
2013,10,27,04,46,9.40
2013,10,27,04,47,9.50
2013,10,27,04,48,9.50
2013,10,27,04,49,9.50
2013,10,27,04,50,9.50
2013,10,27,04,51,9.50
2013,10,27,04,52,9.50
2013,10,27,04,53,9.50
2013,10,27,04,54,9.50
2013,10,27,04,55,9.50
2013,10,27,04,56,9.50
2013,10,27,04,57,9.50
2013,10,27,04,58,9.50
2013,10,27,04,59,9.50
2013,10,27,05,00,9.50
2013,10,27,05,01,9.50
2013,10,27,05,02,9.50
2013,10,27,05,03,9.50
2013,10,27,05,04,9.50
2013,10,27,05,05,9.50
2013,10,27,05,06,9.50
2013,10,27,05,07,9.60
2013,10,27,05,08,9.60
2013,10,27,05,09,9.60
2013,10,27,05,10,9.60
2013,10,27,05,11,9.70
2013,10,27,05,12,9.70
2013,10,27,05,13,9.70
2013,10,27,05,14,9.70
2013,10,27,05,15,9.70
2013,10,27,05,16,9.70
2013,10,27,05,17,9.70
2013,10,27,05,18,9.70
2013,10,27,05,19,9.80
2013,10,27,05,20,9.80
2013,10,27,05,21,9.80
2013,10,27,05,22,9.80
2013,10,27,05,23,9.80
2013,10,27,05,24,9.80
2013,10,27,05,25,9.80
2013,10,27,05,26,9.80
2013,10,27,05,27,9.80
2013,10,27,05,28,9.80
2013,10,27,05,29,9.80
2013,10,27,05,30,9.80
2013,10,27,05,31,9.80
2013,10,27,05,32,9.80
2013,10,27,05,33,9.80
2013,10,27,05,34,9.90
2013,10,27,05,35,9.90
2013,10,27,05,36,9.90
2013,10,27,05,37,9.90
2013,10,27,05,38,9.90
2013,10,27,05,39,9.90
2013,10,27,05,40,9.90
2013,10,27,05,41,10.00
2013,10,27,05,42,10.00
2013,10,27,05,43,10.00
2013,10,27,05,44,10.00
2013,10,27,05,45,10.10
2013,10,27,05,46,10.10
2013,10,27,05,47,10.10
2013,10,27,05,48,10.10
2013,10,27,05,49,10.10
2013,10,27,05,50,10.10
2013,10,27,05,51,10.20
2013,10,27,05,52,10.20
2013,10,27,05,53,10.20
2013,10,27,05,54,10.20
2013,10,27,05,55,10.20
2013,10,27,05,56,10.20
2013,10,27,05,57,10.20
2013,10,27,05,58,10.20
2013,10,27,05,59,10.20
2013,10,27,06,00,10.20
2013,10,27,06,01,10.20
2013,10,27,06,02,10.20
2013,10,27,06,03,10.20
2013,10,27,06,04,10.20
2013,10,27,06,05,10.20
2013,10,27,06,06,10.20
2013,10,27,06,07,10.20
2013,10,27,06,08,10.20
2013,10,27,06,09,10.20
2013,10,27,06,10,10.20
2013,10,27,06,11,10.20
2013,10,27,06,12,10.20
2013,10,27,06,13,10.20
2013,10,27,06,14,10.20
2013,10,27,06,15,10.20
2013,10,27,06,16,10.20
2013,10,27,06,17,10.10
2013,10,27,06,18,10.10
2013,10,27,06,19,10.10
2013,10,27,06,20,10.10
2013,10,27,06,21,10.10
2013,10,27,06,22,10.10
2013,10,27,06,23,10.10
2013,10,27,06,24,10.10
2013,10,27,06,25,10.10
2013,10,27,06,26,10.10
2013,10,27,06,27,10.10
2013,10,27,06,28,10.10
2013,10,27,06,29,10.00
2013,10,27,06,30,10.00
2013,10,27,06,31,10.00
2013,10,27,06,32,10.00
2013,10,27,06,33,10.00
2013,10,27,06,34,10.00
2013,10,27,06,35,9.90
2013,10,27,06,36,9.90
2013,10,27,06,37,9.90
2013,10,27,06,38,9.90
2013,10,27,06,39,9.90
2013,10,27,06,40,9.90
2013,10,27,06,41,9.90
2013,10,27,06,42,10.00
2013,10,27,06,43,10.00
2013,10,27,06,44,10.00
2013,10,27,06,45,10.00
2013,10,27,06,46,10.00
2013,10,27,06,47,10.00
2013,10,27,06,48,10.00
2013,10,27,06,49,10.00
2013,10,27,06,50,10.00
2013,10,27,06,51,10.00
2013,10,27,06,52,10.00
2013,10,27,06,53,10.00
2013,10,27,06,54,10.00
2013,10,27,06,55,10.00
2013,10,27,06,56,9.90
2013,10,27,06,57,9.90
2013,10,27,06,58,9.90
2013,10,27,06,59,9.90
2013,10,27,07,00,9.90
2013,10,27,07,01,9.90
2013,10,27,07,02,9.90
2013,10,27,07,03,9.90
2013,10,27,07,04,9.90
2013,10,27,07,05,9.90
2013,10,27,07,06,9.80
2013,10,27,07,07,9.80
2013,10,27,07,08,9.80
2013,10,27,07,09,9.80
2013,10,27,07,10,9.80
2013,10,27,07,11,9.80
2013,10,27,07,12,9.80
2013,10,27,07,13,9.80
2013,10,27,07,14,9.80
2013,10,27,07,15,9.80
2013,10,27,07,16,9.80
2013,10,27,07,17,9.80
2013,10,27,07,18,9.80
2013,10,27,07,19,9.80
2013,10,27,07,20,9.90
2013,10,27,07,21,9.90
2013,10,27,07,22,9.90
2013,10,27,07,23,10.00
2013,10,27,07,24,10.00
2013,10,27,07,25,10.10
2013,10,27,07,26,10.10
2013,10,27,07,27,10.10
2013,10,27,07,28,10.00
2013,10,27,07,29,10.00
2013,10,27,07,30,10.00
2013,10,27,07,31,9.90
2013,10,27,07,32,9.90
2013,10,27,07,33,9.90
2013,10,27,07,34,9.90
2013,10,27,07,35,9.80
2013,10,27,07,36,9.80
2013,10,27,07,37,9.80
2013,10,27,07,38,9.70
2013,10,27,07,39,9.70
2013,10,27,07,40,9.70
2013,10,27,07,41,9.60
2013,10,27,07,42,9.60
2013,10,27,07,43,9.60
2013,10,27,07,44,9.50
2013,10,27,07,45,9.50
2013,10,27,07,46,9.40
2013,10,27,07,47,9.40
2013,10,27,07,48,9.30
2013,10,27,07,49,9.30
2013,10,27,07,50,9.30
2013,10,27,07,51,9.30
2013,10,27,07,52,9.20
2013,10,27,07,53,9.20
2013,10,27,07,54,9.20
2013,10,27,07,55,9.10
2013,10,27,07,56,9.10
2013,10,27,07,57,9.10
2013,10,27,07,58,9.10
2013,10,27,07,59,9.00
2013,10,27,08,00,9.00
2013,10,27,08,01,9.00
2013,10,27,08,02,9.00
2013,10,27,08,03,8.90
2013,10,27,08,04,8.90
2013,10,27,08,05,8.90
2013,10,27,08,06,8.90
2013,10,27,08,07,8.90
2013,10,27,08,08,8.90
2013,10,27,08,09,8.90
2013,10,27,08,10,8.80
2013,10,27,08,11,8.80
2013,10,27,08,12,8.80
2013,10,27,08,13,8.80
2013,10,27,08,14,8.80
2013,10,27,08,15,8.80
2013,10,27,08,16,8.80
2013,10,27,08,17,8.80
2013,10,27,08,18,8.80
2013,10,27,08,19,8.80
2013,10,27,08,20,8.80
2013,10,27,08,21,8.80
2013,10,27,08,22,8.80
2013,10,27,08,23,8.80
2013,10,27,08,24,8.80
2013,10,27,08,25,8.80
2013,10,27,08,26,8.80
2013,10,27,08,27,8.80
2013,10,27,08,28,8.80
2013,10,27,08,29,8.80
2013,10,27,08,30,8.90
2013,10,27,08,31,8.90
2013,10,27,08,32,8.90
2013,10,27,08,33,8.90
2013,10,27,08,34,9.00
2013,10,27,08,35,9.00
2013,10,27,08,36,9.10
2013,10,27,08,37,9.10
2013,10,27,08,38,9.10
2013,10,27,08,39,9.20
2013,10,27,08,40,9.20
2013,10,27,08,41,9.20
2013,10,27,08,42,9.30
2013,10,27,08,43,9.30
2013,10,27,08,44,9.40
2013,10,27,08,45,9.40
2013,10,27,08,46,9.50
2013,10,27,08,47,9.50
2013,10,27,08,48,9.60
2013,10,27,08,49,9.60
2013,10,27,08,50,9.60
2013,10,27,08,51,9.70
2013,10,27,08,52,9.70
2013,10,27,08,53,9.70
2013,10,27,08,54,9.80
2013,10,27,08,55,9.80
2013,10,27,08,56,9.80
2013,10,27,08,57,9.90
2013,10,27,08,58,9.90
2013,10,27,08,59,9.90
2013,10,27,09,00,10.00
2013,10,27,09,01,10.10
2013,10,27,09,02,10.10
2013,10,27,09,03,10.10
2013,10,27,09,04,10.20
2013,10,27,09,05,10.20
2013,10,27,09,06,10.20
2013,10,27,09,07,10.30
2013,10,27,09,08,10.30
2013,10,27,09,09,10.30
2013,10,27,09,10,10.30
2013,10,27,09,11,10.40
2013,10,27,09,12,10.40
2013,10,27,09,13,10.50
2013,10,27,09,14,10.50
2013,10,27,09,15,10.60
2013,10,27,09,16,10.60
2013,10,27,09,17,10.70
2013,10,27,09,18,10.70
2013,10,27,09,19,10.70
2013,10,27,09,20,10.70
2013,10,27,09,21,10.80
2013,10,27,09,22,10.80
2013,10,27,09,23,10.90
2013,10,27,09,24,10.90
2013,10,27,09,25,10.90
2013,10,27,09,26,10.90
2013,10,27,09,27,11.00
2013,10,27,09,28,11.00
2013,10,27,09,29,11.00
2013,10,27,09,30,11.10
2013,10,27,09,31,11.10
2013,10,27,09,32,11.10
2013,10,27,09,33,11.10
2013,10,27,09,34,11.20
2013,10,27,09,35,11.20
2013,10,27,09,36,11.20
2013,10,27,09,37,11.30
2013,10,27,09,38,11.30
2013,10,27,09,39,11.40
2013,10,27,09,40,11.40
2013,10,27,09,41,11.40
2013,10,27,09,42,11.40
2013,10,27,09,43,11.50
2013,10,27,09,44,11.50
2013,10,27,09,45,11.50
2013,10,27,09,46,11.60
2013,10,27,09,47,11.60
2013,10,27,09,48,11.60
2013,10,27,09,49,11.60
2013,10,27,09,50,11.60
2013,10,27,09,51,11.70
2013,10,27,09,52,11.70
2013,10,27,09,53,11.70
2013,10,27,09,54,11.70
2013,10,27,09,55,11.80
2013,10,27,09,56,11.80
2013,10,27,09,57,11.80
2013,10,27,09,58,11.80
2013,10,27,09,59,11.80
2013,10,27,10,00,11.90
2013,10,27,10,01,11.90
2013,10,27,10,02,11.90
2013,10,27,10,03,11.90
2013,10,27,10,04,11.90
2013,10,27,10,05,11.90
2013,10,27,10,06,11.90
2013,10,27,10,07,12.00
2013,10,27,10,08,12.00
2013,10,27,10,09,12.00
2013,10,27,10,10,12.00
2013,10,27,10,11,12.10
2013,10,27,10,12,12.10
2013,10,27,10,13,12.20
2013,10,27,10,14,12.20
2013,10,27,10,15,12.20
2013,10,27,10,16,12.20
2013,10,27,10,17,12.30
2013,10,27,10,18,12.30
2013,10,27,10,19,12.30
2013,10,27,10,20,12.30
2013,10,27,10,21,12.30
2013,10,27,10,22,12.40
2013,10,27,10,23,12.40
2013,10,27,10,24,12.40
2013,10,27,10,25,12.50
2013,10,27,10,26,12.50
2013,10,27,10,27,12.50
2013,10,27,10,28,12.50
2013,10,27,10,29,12.50
2013,10,27,10,30,12.60
2013,10,27,10,31,12.60
2013,10,27,10,32,12.60
2013,10,27,10,33,12.60
2013,10,27,10,34,12.70
2013,10,27,10,35,12.70
2013,10,27,10,36,12.70
2013,10,27,10,37,12.70
2013,10,27,10,38,12.70
2013,10,27,10,39,12.70
2013,10,27,10,40,12.70
2013,10,27,10,41,12.70
2013,10,27,10,42,12.70
2013,10,27,10,43,12.70
2013,10,27,10,44,12.70
2013,10,27,10,45,12.80
2013,10,27,10,46,12.80
2013,10,27,10,47,12.80
2013,10,27,10,48,12.80
2013,10,27,10,49,12.80
2013,10,27,10,50,12.80
2013,10,27,10,51,12.80
2013,10,27,10,52,12.90
2013,10,27,10,53,12.90
2013,10,27,10,54,12.90
2013,10,27,10,55,12.90
2013,10,27,10,56,12.90
2013,10,27,10,57,12.90
2013,10,27,10,58,12.90
2013,10,27,10,59,12.90
2013,10,27,11,00,12.90
2013,10,27,11,01,12.90
2013,10,27,11,02,13.00
2013,10,27,11,03,13.00
2013,10,27,11,04,12.90
2013,10,27,11,05,12.90
2013,10,27,11,06,12.90
2013,10,27,11,07,12.90
2013,10,27,11,08,12.90
2013,10,27,11,09,12.90
2013,10,27,11,10,12.90
2013,10,27,11,11,12.90
2013,10,27,11,12,12.90
2013,10,27,11,13,12.90
2013,10,27,11,14,12.90
2013,10,27,11,15,12.90
2013,10,27,11,16,12.90
2013,10,27,11,17,12.90
2013,10,27,11,18,12.90
2013,10,27,11,19,12.90
2013,10,27,11,20,12.90
2013,10,27,11,21,12.90
2013,10,27,11,22,12.90
2013,10,27,11,23,12.90
2013,10,27,11,24,12.90
2013,10,27,11,25,12.90
2013,10,27,11,26,13.00
2013,10,27,11,27,13.00
2013,10,27,11,28,13.00
2013,10,27,11,29,13.00
2013,10,27,11,30,13.10
2013,10,27,11,31,13.10
2013,10,27,11,32,13.20
2013,10,27,11,33,13.20
2013,10,27,11,34,13.20
2013,10,27,11,35,13.30
2013,10,27,11,36,13.30
2013,10,27,11,37,13.20
2013,10,27,11,38,13.20
2013,10,27,11,39,13.30
2013,10,27,11,40,13.30
2013,10,27,11,41,13.30
2013,10,27,11,42,13.30
2013,10,27,11,43,13.30
2013,10,27,11,44,13.40
2013,10,27,11,45,13.40
2013,10,27,11,46,13.40
2013,10,27,11,47,13.50
2013,10,27,11,48,13.50
2013,10,27,11,49,13.50
2013,10,27,11,50,13.50
2013,10,27,11,51,13.50
2013,10,27,11,52,13.60
2013,10,27,11,53,13.60
2013,10,27,11,54,13.60
2013,10,27,11,55,13.60
2013,10,27,11,56,13.60
2013,10,27,11,57,13.70
2013,10,27,11,58,13.70
2013,10,27,11,59,13.70
2013,10,27,12,00,13.70
2013,10,27,12,01,13.70
2013,10,27,12,02,13.70
2013,10,27,12,03,13.70
2013,10,27,12,04,13.80
2013,10,27,12,05,13.80
2013,10,27,12,06,13.90
2013,10,27,12,07,13.90
2013,10,27,12,08,13.90
2013,10,27,12,09,13.90
2013,10,27,12,10,13.90
2013,10,27,12,11,13.90
2013,10,27,12,12,13.90
2013,10,27,12,13,13.90
2013,10,27,12,14,13.90
2013,10,27,12,15,13.90
2013,10,27,12,16,13.90
2013,10,27,12,17,13.90
2013,10,27,12,18,13.90
2013,10,27,12,19,14.00
2013,10,27,12,20,14.00
2013,10,27,12,21,14.00
2013,10,27,12,22,14.00
2013,10,27,12,23,14.00
2013,10,27,12,24,14.00
2013,10,27,12,25,14.00
2013,10,27,12,26,14.10
2013,10,27,12,27,14.10
2013,10,27,12,28,14.10
2013,10,27,12,29,14.10
2013,10,27,12,30,14.10
2013,10,27,12,31,14.10
2013,10,27,12,32,14.10
2013,10,27,12,33,14.10
2013,10,27,12,34,14.10
2013,10,27,12,35,14.20
2013,10,27,12,36,14.20
2013,10,27,12,37,14.30
2013,10,27,12,38,14.30
2013,10,27,12,39,14.30
2013,10,27,12,40,14.40
2013,10,27,12,41,14.40
2013,10,27,12,42,14.40
2013,10,27,12,43,14.40
2013,10,27,12,44,14.40
2013,10,27,12,45,14.40
2013,10,27,12,46,14.40
2013,10,27,12,47,14.40
2013,10,27,12,48,14.40
2013,10,27,12,49,14.40
2013,10,27,12,50,14.40
2013,10,27,12,51,14.40
2013,10,27,12,52,14.40
2013,10,27,12,53,14.40
2013,10,27,12,54,14.40
2013,10,27,12,55,14.40
2013,10,27,12,56,14.50
2013,10,27,12,57,14.50
2013,10,27,12,58,14.50
2013,10,27,12,59,14.60
2013,10,27,13,00,14.60
2013,10,27,13,01,14.60
2013,10,27,13,02,14.60
2013,10,27,13,03,14.70
2013,10,27,13,04,14.70
2013,10,27,13,05,14.60
2013,10,27,13,06,14.70
2013,10,27,13,07,14.70
2013,10,27,13,08,14.70
2013,10,27,13,09,14.70
2013,10,27,13,10,14.70
2013,10,27,13,11,14.80
2013,10,27,13,12,14.80
2013,10,27,13,13,14.80
2013,10,27,13,14,14.80
2013,10,27,13,15,14.80
2013,10,27,13,16,14.80
2013,10,27,13,17,14.80
2013,10,27,13,18,14.80
2013,10,27,13,19,14.80
2013,10,27,13,20,14.80
2013,10,27,13,21,14.90
2013,10,27,13,22,14.90
2013,10,27,13,23,14.90
2013,10,27,13,24,14.90
2013,10,27,13,25,14.90
2013,10,27,13,26,14.90
2013,10,27,13,27,14.90
2013,10,27,13,28,15.00
2013,10,27,13,29,15.00
2013,10,27,13,30,15.00
2013,10,27,13,31,15.00
2013,10,27,13,32,15.00
2013,10,27,13,33,15.00
2013,10,27,13,34,15.00
2013,10,27,13,35,15.00
2013,10,27,13,36,15.00
2013,10,27,13,37,15.10
2013,10,27,13,38,15.10
2013,10,27,13,39,15.10
2013,10,27,13,40,15.10
2013,10,27,13,41,15.10
2013,10,27,13,42,15.10
2013,10,27,13,43,15.10
2013,10,27,13,44,15.10
2013,10,27,13,45,15.20
2013,10,27,13,46,15.20
2013,10,27,13,47,15.20
2013,10,27,13,48,15.20
2013,10,27,13,49,15.20
2013,10,27,13,50,15.20
2013,10,27,13,51,15.30
2013,10,27,13,52,15.30
2013,10,27,13,53,15.30
2013,10,27,13,54,15.30
2013,10,27,13,55,15.30
2013,10,27,13,56,15.30
2013,10,27,13,57,15.30
2013,10,27,13,58,15.30
2013,10,27,13,59,15.30
2013,10,27,14,00,15.40
2013,10,27,14,01,15.40
2013,10,27,14,02,15.40
2013,10,27,14,03,15.30
2013,10,27,14,04,15.30
2013,10,27,14,05,15.20
2013,10,27,14,06,15.10
2013,10,27,14,07,15.10
2013,10,27,14,08,15.20
2013,10,27,14,09,15.20
2013,10,27,14,10,15.20
2013,10,27,14,11,15.20
2013,10,27,14,12,15.10
2013,10,27,14,13,15.10
2013,10,27,14,14,15.10
2013,10,27,14,15,15.00
2013,10,27,14,16,15.10
2013,10,27,14,17,15.00
2013,10,27,14,18,15.10
2013,10,27,14,19,15.10
2013,10,27,14,20,15.20
2013,10,27,14,21,15.20
2013,10,27,14,22,15.20
2013,10,27,14,23,15.20
2013,10,27,14,24,15.30
2013,10,27,14,25,15.30
2013,10,27,14,26,15.40
2013,10,27,14,27,15.40
2013,10,27,14,28,15.40
2013,10,27,14,29,15.30
2013,10,27,14,30,15.30
2013,10,27,14,31,15.30
2013,10,27,14,32,15.30
2013,10,27,14,33,15.30
2013,10,27,14,34,15.30
2013,10,27,14,35,15.20
2013,10,27,14,36,15.20
2013,10,27,14,37,15.20
2013,10,27,14,38,15.20
2013,10,27,14,39,15.20
2013,10,27,14,40,15.20
2013,10,27,14,41,15.20
2013,10,27,14,42,15.20
2013,10,27,14,43,15.20
2013,10,27,14,44,15.10
2013,10,27,14,45,15.10
2013,10,27,14,46,15.10
2013,10,27,14,47,15.10
2013,10,27,14,48,15.10
2013,10,27,14,49,15.10
2013,10,27,14,50,15.10
2013,10,27,14,51,15.10
2013,10,27,14,52,15.00
2013,10,27,14,53,15.00
2013,10,27,14,54,15.00
2013,10,27,14,55,15.00
2013,10,27,14,56,15.00
2013,10,27,14,57,15.00
2013,10,27,14,58,15.00
2013,10,27,14,59,15.00
2013,10,27,15,00,15.00
2013,10,27,15,01,15.00
2013,10,27,15,02,15.00
2013,10,27,15,03,15.00
2013,10,27,15,04,15.00
2013,10,27,15,05,15.00
2013,10,27,15,06,15.00
2013,10,27,15,07,15.00
2013,10,27,15,08,15.00
2013,10,27,15,09,15.00
2013,10,27,15,10,15.00
2013,10,27,15,11,15.00
2013,10,27,15,12,15.00
2013,10,27,15,13,15.00
2013,10,27,15,14,15.00
2013,10,27,15,15,15.00
2013,10,27,15,16,15.10
2013,10,27,15,17,15.20
2013,10,27,15,18,15.30
2013,10,27,15,19,15.30
2013,10,27,15,20,15.30
2013,10,27,15,21,15.30
2013,10,27,15,22,15.30
2013,10,27,15,23,15.30
2013,10,27,15,24,15.30
2013,10,27,15,25,15.30
2013,10,27,15,26,15.30
2013,10,27,15,27,15.20
2013,10,27,15,28,15.20
2013,10,27,15,29,15.20
2013,10,27,15,30,15.20
2013,10,27,15,31,15.10
2013,10,27,15,32,15.10
2013,10,27,15,33,15.10
2013,10,27,15,34,15.10
2013,10,27,15,35,15.10
2013,10,27,15,36,15.10
2013,10,27,15,37,15.20
2013,10,27,15,38,15.20
2013,10,27,15,39,15.30
2013,10,27,15,40,15.30
2013,10,27,15,41,15.30
2013,10,27,15,42,15.30
2013,10,27,15,43,15.20
2013,10,27,15,44,15.20
2013,10,27,15,45,15.20
2013,10,27,15,46,15.10
2013,10,27,15,47,15.10
2013,10,27,15,48,15.10
2013,10,27,15,49,15.10
2013,10,27,15,50,15.00
2013,10,27,15,51,15.00
2013,10,27,15,52,15.00
2013,10,27,15,53,15.00
2013,10,27,15,54,15.00
2013,10,27,15,55,15.00
2013,10,27,15,56,15.00
2013,10,27,15,57,15.00
2013,10,27,15,58,15.00
2013,10,27,15,59,15.00
2013,10,27,16,00,15.00
2013,10,27,16,01,15.00
2013,10,27,16,02,15.00
2013,10,27,16,03,15.00
2013,10,27,16,04,15.00
2013,10,27,16,05,15.00
2013,10,27,16,06,15.00
2013,10,27,16,07,15.00
2013,10,27,16,08,15.00
2013,10,27,16,09,15.00
2013,10,27,16,10,15.00
2013,10,27,16,11,15.00
2013,10,27,16,12,15.00
2013,10,27,16,13,15.00
2013,10,27,16,14,15.00
2013,10,27,16,15,15.00
2013,10,27,16,16,15.00
2013,10,27,16,17,15.00
2013,10,27,16,18,15.00
2013,10,27,16,19,15.00
2013,10,27,16,20,15.00
2013,10,27,16,21,15.00
2013,10,27,16,22,15.00
2013,10,27,16,23,15.00
2013,10,27,16,24,15.00
2013,10,27,16,25,15.00
2013,10,27,16,26,15.00
2013,10,27,16,27,15.00
2013,10,27,16,28,15.00
2013,10,27,16,29,15.00
2013,10,27,16,30,15.00
2013,10,27,16,31,15.00
2013,10,27,16,32,15.00
2013,10,27,16,33,15.00
2013,10,27,16,34,15.00
2013,10,27,16,35,15.00
2013,10,27,16,36,15.00
2013,10,27,16,37,15.00
2013,10,27,16,38,15.00
2013,10,27,16,39,15.00
2013,10,27,16,40,15.00
2013,10,27,16,41,15.00
2013,10,27,16,42,15.00
2013,10,27,16,43,15.00
2013,10,27,16,44,14.90
2013,10,27,16,45,14.90
2013,10,27,16,46,14.90
2013,10,27,16,47,14.90
2013,10,27,16,48,14.90
2013,10,27,16,49,14.80
2013,10,27,16,50,14.80
2013,10,27,16,51,14.80
2013,10,27,16,52,14.80
2013,10,27,16,53,14.80
2013,10,27,16,54,14.70
2013,10,27,16,55,14.70
2013,10,27,16,56,14.80
2013,10,27,16,57,14.70
2013,10,27,16,58,14.70
2013,10,27,16,59,14.80
2013,10,27,17,00,14.80
2013,10,27,17,01,14.80
2013,10,27,17,02,14.80
2013,10,27,17,03,14.80
2013,10,27,17,04,14.80
2013,10,27,17,05,14.80
2013,10,27,17,06,14.70
2013,10,27,17,07,14.70
2013,10,27,17,08,14.70
2013,10,27,17,09,14.70
2013,10,27,17,10,14.70
2013,10,27,17,11,14.70
2013,10,27,17,12,14.70
2013,10,27,17,13,14.70
2013,10,27,17,14,14.60
2013,10,27,17,15,14.60
2013,10,27,17,16,14.60
2013,10,27,17,17,14.50
2013,10,27,17,18,14.50
2013,10,27,17,19,14.50
2013,10,27,17,20,14.40
2013,10,27,17,21,14.40
2013,10,27,17,22,14.40
2013,10,27,17,23,14.40
2013,10,27,17,24,14.30
2013,10,27,17,25,14.30
2013,10,27,17,26,14.30
2013,10,27,17,27,14.30
2013,10,27,17,28,14.20
2013,10,27,17,29,14.20
2013,10,27,17,30,14.20
2013,10,27,17,31,14.20
2013,10,27,17,32,14.20
2013,10,27,17,33,14.20
2013,10,27,17,34,14.20
2013,10,27,17,35,14.20
2013,10,27,17,36,14.20
2013,10,27,17,37,14.20
2013,10,27,17,38,14.20
2013,10,27,17,39,14.20